Location: Sternwarte_Laufen
(47.9344°N, 12.9346°E)
Time: 21:39:20
(UTC+01:00)

Envisat - Visible Passes

Search period start: 23 November 2017 00:00
Search period end: 03 December 2017 00:00
Orbit: 764 x 766 km, 98.2° (Epoch: 23 November)

Date Brightness Start Highest point End Pass type
(mag) Time Alt. Az. Time Alt. Az. Time Alt. Az.
23 Nov 5.2 19:01:51 13° N 19:01:51 13° N 19:02:27 10° N visible
24 Nov 5.2 18:24:46 11° NNE 18:24:46 11° NNE 18:25:02 10° NNE visible
24 Nov 5.7 20:04:59 10° NNW 20:04:59 10° NNW 20:05:03 10° NNW visible
25 Nov 5.4 19:27:54 12° N 19:27:54 12° N 19:28:17 10° N visible
26 Nov 5.2 18:50:50 12° N 18:50:50 12° N 18:51:10 10° N visible
28 Nov 5.4 19:16:53 11° N 19:16:53 11° N 19:17:05 10° N visible
29 Nov 5.3 18:39:48 10° N 18:39:48 10° N 18:39:53 10° N visible
01 Dec 5.4 19:05:48 10° N 19:05:48 10° N 19:05:51 10° N visible
